{"data":{"norad_id":51280,"epoch":"2026-06-06T02:06:38.886912Z","epoch_age_seconds":9215671,"freshness":"OLD","line1":"1 51280U 22006A   26157.08795008 -.00000058  00000+0  00000+0 0  9996","line2":"2 51280   0.7690  83.2777 0002840 165.6787 110.1567  1.00289779 16021","mean_motion":1.00289779,"eccentricity":0.000284,"inclination_deg":0.769,"raan_deg":83.2777,"arg_perigee_deg":165.6787,"mean_anomaly_deg":110.1567,"bstar":0,"rev_number":1602,"period_min":1435.8392394104,"perigee_km":35769.577992533,"apogee_km":35793.524695512,"semimajor_km":42159.688344022,"source":"CELESTRAK","updated_at":"2026-07-05T09:00:29.525378Z"}}